Regional Weather Roundup
Issued by NWS

Home | Current Version | Previous Version | Graphics & Text | Print | Product List | Glossary On
Versions: 1 2 3 4 5 6 7 8 9 10 11 12 13 14 15 16 17 18 19 20 21 22 23 24 25 26 27
000
ASUS45 KCYS 222110
RWRWY

WYOMING REGIONAL WEATHER ROUNDUP
NATIONAL WEATHER SERVICE CHEYENNE WY
300 PM MDT MON MAY 22 2017

NOTE:  "FAIR" INDICATES FEW OR NO CLOUDS BELOW 12,000 FEET
WITH NO SIGNIFICANT WEATHER AND/OR OBSTRUCTIONS TO VISIBILITY.

WYZ001-222200-
YELLOWSTONE NATIONAL PARK

CITY           SKY/WX    TMP DP  RH WIND       PRES   REMARKS
LK YELLOWSTONE   N/A     48  32  53 N12G24    30.35R
W YELLOWSTONE  NOT AVBL

$$
WYZ002>013-054>058-071-098>099-222200-
NORTHERN WYOMING

CITY           SKY/WX    TMP DP  RH WIND       PRES   REMARKS
JACKSON        MOSUNNY   61  28  29 N14       30.24R
CODY           FAIR      56  31  38 N17G23    30.24F
GREYBULL       FAIR      58  44  60 NW20      30.19R
WORLAND        FAIR      57  48  72 NW10G16   30.21S
SHERIDAN       PTSUNNY   57  39  51 NW18      30.18F
BUFFALO        PTSUNNY   53  41  63 N22       30.19S
GILLETTE       PTSUNNY   55  38  52 NW25G31   30.12F
HULETT         RAIN      43  37  81 N13G20    30.16R
NEWCASTLE      LGT RAIN  48  37  66 NW18G26   30.10R

$$
WYZ014>020-022>026-101>103-222200-
CENTRAL WYOMING

CITY           SKY/WX    TMP DP  RH WIND       PRES   REMARKS
BIG PINEY      FAIR      65  25  22 NW21G35   30.22F
PINEDALE       MOCLDY    63  23  22 N25G35    30.22S
DUBOIS         MOCLDY    55  28  35 N17G29    30.24R
LANDER         LGT RAIN  42  39  89 SW3       30.32R FOG
RIVERTON       LGT RAIN  45  38  76 NE14G24   30.27R
CASPER         CLOUDY    44  39  82 N12       30.24S
DOUGLAS        PTSUNNY   44  40  85 W13       30.20

$$
WYZ021-027>030-104>119-222200-
SOUTHERN WYOMING

CITY           SKY/WX    TMP DP  RH WIND       PRES   REMARKS
EVANSTON       FAIR      62  34  35 NW12      30.28F
KEMMERER         N/A     61  30  31 W17G28    30.26F
FORT BRIDGER   MOCLDY    65  31  27 NW17G25   30.28F
ROCK SPRINGS   PTSUNNY   65  27  23 NW21G28   30.18F
DIXON            N/A     56  38  52 SW6       30.22
RAWLINS        CLOUDY    45  38  76 N28G36    30.23R
SARATOGA       CLOUDY    55  32  41 W20G29    30.17F
LARAMIE        LGT RAIN  42  35  76 N21G28    30.17R
CHEYENNE       RAIN      39  36  89 N18G29    30.17S FOG     WCI  30
TORRINGTON     CLOUDY    50  37  61 N23G33    30.13R
PINE BLUFFS    CLOUDY    43  43 100 N26G39    30.15R

$$




USA.gov is the U.S. government's official web portal to all federal, state and local government web resources and services.